Kemmerer, WY

4:07 PM MST on November 20, 2017 (GMT -0700)
Kemmerer Municipal

Weather History for KEMM - August, 2013

Change the Weather History Date:

Friday, August 9, 2013

  Actual Average Record
Temperature  
Mean Temperature 65 °F -  
Max Temperature 79 °F 80 °F 89 °F (1964)
Min Temperature 51 °F 43 °F 33 °F (1951)
Growing Degree Days 15 (Base 50)    
Moisture  
Dew Point 34 °F    
Average Humidity 36    
Maximum Humidity 62    
Minimum Humidity 14    
Precipitation  
Precipitation 0.00 in - - ()
Sea Level Pressure  
Sea Level Pressure 30.27 in    
Wind  
Wind Speed 9 mph (ENE)    
Max Wind Speed 21 mph    
Max Gust Speed 32 mph    
Visibility 10 miles    
Events Rain , Thunderstorm    
Averages and records for this station are not official NWS values.
T = Trace of Precipitation, MM = Missing Value Source: NWS Daily Summary

Daily Weather History Graph

Daily Weather History Graph

Search for Another Location

Airport or City:

Trip Planner

Search our weather history database for the weather conditions in past years. The results will help you decide how hot, cold, wet, or windy it might be!

Date:

Astronomy

Aug. 09, 2013 Rise Set
Actual Time 6:24 AM MDT 8:30 PM MDT
Civil Twilight 5:53 AM MDT 9:00 PM MDT
Nautical Twilight 5:16 AM MDT 9:37 PM MDT
Astronomical Twilight 4:35 AM MDT 10:18 PM MDT
Moon 9:17 AM MDT (8/9) 9:37 PM MDT (8/9)
Length of Visible Light 15h 06m
Length of Day
14h 05m
Waxing Crescent, 8% of the Moon is Illuminated
Aug 9
Waxing Crescent
Aug 14
First Quarter
Aug 20
Full
Aug 28
Last Quarter
Sep 5
New

Hourly Weather History & Observations

Time (MDT) Temp. Dew Point Humidity Pressure Visibility Wind Dir Wind Speed Gust Speed Precip Events Conditions
12:15 AM 58.5 °F 40.6 °F 52% 30.26 in 10.0 mi East 16.1 mph - N/A   Clear
12:35 AM 58.1 °F 40.5 °F 52% 30.25 in 10.0 mi ENE 17.3 mph 24.2 mph N/A   Clear
12:55 AM 58.5 °F 40.1 °F 51% 30.26 in 10.0 mi ENE 17.3 mph - N/A   Clear
1:15 AM 57.9 °F 40.3 °F 52% 30.27 in 10.0 mi ENE 6.9 mph - N/A   Clear
1:35 AM 56.3 °F 40.5 °F 55% 30.27 in 10.0 mi NE 4.6 mph - N/A   Clear
1:55 AM 55.8 °F 40.6 °F 57% 30.27 in 10.0 mi Calm Calm - N/A   Clear
2:15 AM 57.0 °F 39.9 °F 53% 30.27 in 10.0 mi NNE 3.5 mph - N/A   Clear
2:35 AM 57.0 °F 39.6 °F 52% 30.27 in 10.0 mi ENE 9.2 mph - N/A   Clear
2:55 AM 57.6 °F 39.4 °F 51% 30.27 in 10.0 mi NE 10.4 mph 16.1 mph N/A   Clear
3:15 AM 56.8 °F 39.2 °F 52% 30.27 in 10.0 mi NNE 8.1 mph - N/A   Clear
3:35 AM 54.9 °F 39.4 °F 56% 30.27 in 10.0 mi NNE 6.9 mph - N/A   Clear
3:55 AM 54.1 °F 39.2 °F 57% 30.26 in 10.0 mi NNE 9.2 mph - N/A   Clear
4:15 AM 53.8 °F 39.2 °F 58% 30.26 in 10.0 mi NNE 9.2 mph - N/A   Clear
4:35 AM 54.0 °F 39.2 °F 57% 30.25 in 10.0 mi North 10.4 mph - N/A   Clear
4:55 AM 53.4 °F 39.4 °F 59% 30.25 in 10.0 mi NNE 10.4 mph - N/A   Clear
5:15 AM 53.4 °F 39.4 °F 59% 30.24 in 10.0 mi NNE 10.4 mph - N/A   Clear
5:35 AM 53.1 °F 39.2 °F 59% 30.24 in 10.0 mi NNE 11.5 mph - N/A   Clear
5:55 AM 52.3 °F 39.2 °F 61% 30.25 in 10.0 mi North 9.2 mph - N/A   Clear
6:15 AM 51.8 °F 39.2 °F 62% 30.25 in 10.0 mi North 9.2 mph - N/A   Clear
6:35 AM 51.8 °F 39.0 °F 62% 30.25 in 10.0 mi North 9.2 mph - N/A   Clear
6:55 AM 52.3 °F 39.0 °F 61% 30.26 in 10.0 mi North 9.2 mph - N/A   Clear
7:15 AM 52.2 °F 39.0 °F 61% 30.27 in 10.0 mi North 8.1 mph - N/A   Clear
7:35 AM 52.2 °F 39.0 °F 61% 30.27 in 10.0 mi North 9.2 mph - N/A   Clear
7:55 AM 54.9 °F 39.7 °F 57% 30.28 in 10.0 mi NNE 9.2 mph - N/A   Clear
8:15 AM 57.0 °F 40.1 °F 53% 30.29 in 10.0 mi NE 4.6 mph - N/A   Clear
8:35 AM 58.8 °F 40.5 °F 51% 30.29 in 10.0 mi NNE 9.2 mph - N/A   Clear
8:55 AM 60.3 °F 40.6 °F 48% 30.29 in 10.0 mi NE 4.6 mph - N/A   Clear
9:15 AM 61.9 °F 41.0 °F 46% 30.29 in 10.0 mi NE 4.6 mph - N/A   Clear
9:35 AM 63.9 °F 41.0 °F 43% 30.29 in 10.0 mi NNE 6.9 mph - N/A   Clear
9:55 AM 66.4 °F 40.3 °F 38% 30.29 in 10.0 mi East 4.6 mph - N/A   Clear
10:15 AM 68.4 °F 38.8 °F 34% 30.29 in 10.0 mi East 5.8 mph - N/A   Clear
10:35 AM 69.3 °F 37.8 °F 32% 30.29 in 10.0 mi SE 4.6 mph - N/A   Clear
10:55 AM 70.9 °F 36.0 °F 28% 30.29 in 10.0 mi WSW 3.5 mph - N/A   Clear
11:15 AM 72.0 °F 34.7 °F 26% 30.29 in 10.0 mi Calm Calm - N/A   Clear
11:35 AM 73.2 °F 34.0 °F 24% 30.29 in 10.0 mi Calm Calm - N/A   Clear
11:55 AM 74.5 °F 32.2 °F 21% 30.29 in 10.0 mi SW 9.2 mph - N/A   Clear
12:15 PM 75.2 °F 31.6 °F 20% 30.29 in 10.0 mi NW 3.5 mph - N/A   Clear
12:35 PM 75.7 °F 31.1 °F 19% 30.28 in 10.0 mi Calm Calm - N/A   Clear
12:55 PM 76.8 °F 30.0 °F 18% 30.27 in 10.0 mi SSE 4.6 mph - N/A   Clear
1:15 PM 78.3 °F 28.9 °F 16% 30.26 in 10.0 mi South 3.5 mph - N/A   Clear
1:35 PM 78.8 °F 26.4 °F 15% 30.25 in 10.0 mi West 8.1 mph - N/A   Mostly Cloudy
1:55 PM 75.7 °F 23.0 °F 14% 30.25 in 10.0 mi SSW 5.8 mph - N/A   Mostly Cloudy
2:15 PM 74.7 °F 21.6 °F 14% 30.24 in 10.0 mi ENE 17.3 mph - N/A Thunderstorm Mostly Cloudy
2:35 PM 74.7 °F 22.1 °F 14% 30.25 in 10.0 mi South 13.8 mph 18.4 mph N/A   Mostly Cloudy
2:55 PM 78.1 °F 25.7 °F 14% 30.24 in 10.0 mi East 8.1 mph - N/A   Scattered Clouds
3:15 PM 79.3 °F 26.1 °F 14% 30.24 in 10.0 mi ESE 15.0 mph 24.2 mph N/A   Clear
3:35 PM 77.9 °F 25.7 °F 15% 30.24 in 10.0 mi East 9.2 mph 19.6 mph N/A   Clear
3:55 PM 78.6 °F 24.8 °F 14% 30.24 in 10.0 mi South 3.5 mph - N/A   Clear
4:15 PM 77.0 °F 24.1 °F 14% 30.24 in 10.0 mi SE 9.2 mph 16.1 mph N/A   Clear
4:35 PM 76.1 °F 23.9 °F 14% 30.24 in 10.0 mi SSW 10.4 mph - N/A   Scattered Clouds
4:55 PM 77.0 °F 23.5 °F 14% 30.24 in 10.0 mi SSW 8.1 mph 19.6 mph N/A   Scattered Clouds
5:15 PM 75.9 °F 23.2 °F 14% 30.25 in 10.0 mi SSW 10.4 mph - N/A   Scattered Clouds
5:35 PM 73.2 °F 26.4 °F 18% 30.25 in 10.0 mi SW 20.7 mph 32.2 mph N/A Rain Light Rain
5:55 PM 70.7 °F 30.4 °F 22% 30.25 in 10.0 mi WSW 17.3 mph 23.0 mph N/A   Scattered Clouds
6:15 PM 72.0 °F 29.7 °F 21% 30.26 in 10.0 mi SW 19.6 mph 26.5 mph N/A   Scattered Clouds
6:35 PM 71.8 °F 30.9 °F 22% 30.27 in 10.0 mi SW 16.1 mph 21.9 mph N/A   Scattered Clouds
6:55 PM 71.6 °F 31.5 °F 23% 30.26 in 10.0 mi SSW 13.8 mph 17.3 mph N/A   Clear
7:15 PM 70.9 °F 32.0 °F 24% 30.27 in 10.0 mi South 11.5 mph - N/A   Clear
7:35 PM 69.8 °F 31.3 °F 24% 30.27 in 10.0 mi SSW 13.8 mph - N/A   Clear
7:55 PM 68.5 °F 30.2 °F 24% 30.27 in 10.0 mi SW 12.7 mph 18.4 mph N/A   Clear
8:15 PM 66.7 °F 30.9 °F 26% 30.28 in 10.0 mi SSW 10.4 mph - N/A   Clear
8:35 PM 65.5 °F 31.1 °F 28% 30.27 in 10.0 mi SSW 8.1 mph - N/A   Clear
8:55 PM 64.0 °F 31.6 °F 30% 30.27 in 10.0 mi SSW 6.9 mph - N/A   Clear
9:15 PM 63.3 °F 31.8 °F 31% 30.28 in 10.0 mi SSW 3.5 mph - N/A   Clear
9:35 PM 63.1 °F 31.8 °F 31% 30.28 in 10.0 mi Calm Calm - N/A   Clear
9:55 PM 63.1 °F 31.8 °F 31% 30.28 in 10.0 mi Calm Calm - N/A   Clear
10:15 PM 63.0 °F 31.6 °F 31% 30.28 in 10.0 mi Calm Calm - N/A   Clear
10:35 PM 61.7 °F 31.5 °F 32% 30.28 in 10.0 mi NNE 3.5 mph - N/A   Clear
10:55 PM 61.0 °F 31.6 °F 33% 30.28 in 10.0 mi NNE 4.6 mph - N/A   Mostly Cloudy
11:15 PM 60.1 °F 31.5 °F 34% 30.30 in 10.0 mi Calm Calm - N/A   Scattered Clouds
11:35 PM 60.4 °F 30.9 °F 33% 30.30 in 10.0 mi East 4.6 mph - N/A   Clear
11:55 PM 59.2 °F 30.9 °F 34% 30.30 in 10.0 mi East 4.6 mph - N/A   Clear